Year,Month,Day,Hour,Minute,Value (Times are PST for temperature in C)
2007,08,29,00,00,16.10
2007,08,29,00,01,16.10
2007,08,29,00,02,16.10
2007,08,29,00,03,16.10
2007,08,29,00,04,16.10
2007,08,29,00,05,16.10
2007,08,29,00,06,16.10
2007,08,29,00,07,16.10
2007,08,29,00,08,16.10
2007,08,29,00,09,16.10
2007,08,29,00,10,16.10
2007,08,29,00,11,16.10
2007,08,29,00,12,16.10
2007,08,29,00,13,16.10
2007,08,29,00,14,16.10
2007,08,29,00,15,16.10
2007,08,29,00,16,16.10
2007,08,29,00,17,16.10
2007,08,29,00,18,16.10
2007,08,29,00,19,16.10
2007,08,29,00,20,16.10
2007,08,29,00,21,16.10
2007,08,29,00,22,16.10
2007,08,29,00,23,16.10
2007,08,29,00,24,16.10
2007,08,29,00,25,16.10
2007,08,29,00,26,16.10
2007,08,29,00,27,16.10
2007,08,29,00,28,16.10
2007,08,29,00,29,16.10
2007,08,29,00,30,16.10
2007,08,29,00,31,16.10
2007,08,29,00,32,16.10
2007,08,29,00,33,16.10
2007,08,29,00,34,16.10
2007,08,29,00,35,16.10
2007,08,29,00,36,16.10
2007,08,29,00,37,16.10
2007,08,29,00,38,16.10
2007,08,29,00,39,16.10
2007,08,29,00,40,16.10
2007,08,29,00,41,16.10
2007,08,29,00,42,16.10
2007,08,29,00,43,16.10
2007,08,29,00,44,16.10
2007,08,29,00,45,16.10
2007,08,29,00,46,16.10
2007,08,29,00,47,16.10
2007,08,29,00,48,16.10
2007,08,29,00,49,16.10
2007,08,29,00,50,16.10
2007,08,29,00,51,16.10
2007,08,29,00,52,16.00
2007,08,29,00,53,15.90
2007,08,29,00,54,15.90
2007,08,29,00,55,15.90
2007,08,29,00,56,15.90
2007,08,29,00,57,15.90
2007,08,29,00,58,15.90
2007,08,29,00,59,15.90
2007,08,29,01,00,15.80
2007,08,29,01,01,15.80
2007,08,29,01,02,15.80
2007,08,29,01,03,15.80
2007,08,29,01,04,15.80
2007,08,29,01,05,15.80
2007,08,29,01,06,15.80
2007,08,29,01,07,15.80
2007,08,29,01,08,15.80
2007,08,29,01,09,15.80
2007,08,29,01,10,15.80
2007,08,29,01,11,15.80
2007,08,29,01,12,15.80
2007,08,29,01,13,15.80
2007,08,29,01,14,15.80
2007,08,29,01,15,15.80
2007,08,29,01,16,15.80
2007,08,29,01,17,15.80
2007,08,29,01,18,15.80
2007,08,29,01,19,15.80
2007,08,29,01,20,15.80
2007,08,29,01,21,15.80
2007,08,29,01,22,15.80
2007,08,29,01,23,15.70
2007,08,29,01,24,15.70
2007,08,29,01,25,15.70
2007,08,29,01,26,15.70
2007,08,29,01,27,15.60
2007,08,29,01,28,15.60
2007,08,29,01,29,15.60
2007,08,29,01,30,15.60
2007,08,29,01,31,15.60
2007,08,29,01,32,15.60
2007,08,29,01,33,15.60
2007,08,29,01,34,15.50
2007,08,29,01,35,15.50
2007,08,29,01,36,15.50
2007,08,29,01,37,15.50
2007,08,29,01,38,15.50
2007,08,29,01,39,15.50
2007,08,29,01,40,15.50
2007,08,29,01,41,15.40
2007,08,29,01,42,15.40
2007,08,29,01,43,15.40
2007,08,29,01,44,15.40
2007,08,29,01,45,15.30
2007,08,29,01,46,15.30
2007,08,29,01,47,15.30
2007,08,29,01,48,15.30
2007,08,29,01,49,15.30
2007,08,29,01,50,15.30
2007,08,29,01,51,15.30
2007,08,29,01,52,15.30
2007,08,29,01,53,15.30
2007,08,29,01,54,15.20
2007,08,29,01,55,15.20
2007,08,29,01,56,15.20
2007,08,29,01,57,15.20
2007,08,29,01,58,15.10
2007,08,29,01,59,15.10
2007,08,29,02,00,15.10
2007,08,29,02,01,15.10
2007,08,29,02,02,15.00
2007,08,29,02,03,15.00
2007,08,29,02,04,15.00
2007,08,29,02,05,15.00
2007,08,29,02,06,14.90
2007,08,29,02,07,14.90
2007,08,29,02,08,14.90
2007,08,29,02,09,14.90
2007,08,29,02,10,14.90
2007,08,29,02,11,14.80
2007,08,29,02,12,14.80
2007,08,29,02,13,14.80
2007,08,29,02,14,14.80
2007,08,29,02,15,14.80
2007,08,29,02,16,14.80
2007,08,29,02,17,14.70
2007,08,29,02,18,14.70
2007,08,29,02,19,14.70
2007,08,29,02,20,14.60
2007,08,29,02,21,14.60
2007,08,29,02,22,14.60
2007,08,29,02,23,14.50
2007,08,29,02,24,14.50
2007,08,29,02,25,14.50
2007,08,29,02,26,14.50
2007,08,29,02,27,14.40
2007,08,29,02,28,14.40
2007,08,29,02,29,14.40
2007,08,29,02,30,14.30
2007,08,29,02,31,14.30
2007,08,29,02,32,14.30
2007,08,29,02,33,14.30
2007,08,29,02,34,14.30
2007,08,29,02,35,14.30
2007,08,29,02,36,14.20
2007,08,29,02,37,14.20
2007,08,29,02,38,14.20
2007,08,29,02,39,14.20
2007,08,29,02,40,14.20
2007,08,29,02,41,14.20
2007,08,29,02,42,14.20
2007,08,29,02,43,14.20
2007,08,29,02,44,14.20
2007,08,29,02,45,14.20
2007,08,29,02,46,14.20
2007,08,29,02,47,14.20
2007,08,29,02,48,14.20
2007,08,29,02,49,14.20
2007,08,29,02,50,14.20
2007,08,29,02,51,14.20
2007,08,29,02,52,14.20
2007,08,29,02,53,14.20
2007,08,29,02,54,14.20
2007,08,29,02,55,14.20
2007,08,29,02,56,14.20
2007,08,29,02,57,14.20
2007,08,29,02,58,14.20
2007,08,29,02,59,14.10
2007,08,29,03,00,14.10
2007,08,29,03,01,14.10
2007,08,29,03,02,14.10
2007,08,29,03,03,14.10
2007,08,29,03,04,14.10
2007,08,29,03,05,14.10
2007,08,29,03,06,14.10
2007,08,29,03,07,14.10
2007,08,29,03,08,14.10
2007,08,29,03,09,14.10
2007,08,29,03,10,14.10
2007,08,29,03,11,14.10
2007,08,29,03,12,14.10
2007,08,29,03,13,14.10
2007,08,29,03,14,14.10
2007,08,29,03,15,14.10
2007,08,29,03,16,14.20
2007,08,29,03,17,14.20
2007,08,29,03,18,14.20
2007,08,29,03,19,14.20
2007,08,29,03,20,14.20
2007,08,29,03,21,14.20
2007,08,29,03,22,14.20
2007,08,29,03,23,14.20
2007,08,29,03,24,14.20
2007,08,29,03,25,14.30
2007,08,29,03,26,14.30
2007,08,29,03,27,14.30
2007,08,29,03,28,14.30
2007,08,29,03,29,14.40
2007,08,29,03,30,14.40
2007,08,29,03,31,14.40
2007,08,29,03,32,14.40
2007,08,29,03,33,14.40
2007,08,29,03,34,14.40
2007,08,29,03,35,14.40
2007,08,29,03,36,14.30
2007,08,29,03,37,14.30
2007,08,29,03,38,14.30
2007,08,29,03,39,14.30
2007,08,29,03,40,14.30
2007,08,29,03,41,14.20
2007,08,29,03,42,14.20
2007,08,29,03,43,14.20
2007,08,29,03,44,14.20
2007,08,29,03,45,14.20
2007,08,29,03,46,14.20
2007,08,29,03,47,14.20
2007,08,29,03,48,14.10
2007,08,29,03,49,14.10
2007,08,29,03,50,14.10
2007,08,29,03,51,14.10
2007,08,29,03,52,14.10
2007,08,29,03,53,14.00
2007,08,29,03,54,14.00
2007,08,29,03,55,14.00
2007,08,29,03,56,14.00
2007,08,29,03,57,14.00
2007,08,29,03,58,13.90
2007,08,29,03,59,13.90
2007,08,29,04,00,13.90
2007,08,29,04,01,13.90
2007,08,29,04,02,13.90
2007,08,29,04,03,13.90
2007,08,29,04,04,13.90
2007,08,29,04,05,13.90
2007,08,29,04,06,13.90
2007,08,29,04,07,13.80
2007,08,29,04,08,13.80
2007,08,29,04,09,13.90
2007,08,29,04,10,13.90
2007,08,29,04,11,13.90
2007,08,29,04,12,13.90
2007,08,29,04,13,13.90
2007,08,29,04,14,13.90
2007,08,29,04,15,13.80
2007,08,29,04,16,13.80
2007,08,29,04,17,13.80
2007,08,29,04,18,13.80
2007,08,29,04,19,13.80
2007,08,29,04,20,13.80
2007,08,29,04,21,13.80
2007,08,29,04,22,13.80
2007,08,29,04,23,13.80
2007,08,29,04,24,13.80
2007,08,29,04,25,13.80
2007,08,29,04,26,13.80
2007,08,29,04,27,13.80
2007,08,29,04,28,13.80
2007,08,29,04,29,13.80
2007,08,29,04,30,13.80
2007,08,29,04,31,13.90
2007,08,29,04,32,13.90
2007,08,29,04,33,14.00
2007,08,29,04,34,14.00
2007,08,29,04,35,14.00
2007,08,29,04,36,14.10
2007,08,29,04,37,14.10
2007,08,29,04,38,14.10
2007,08,29,04,39,14.10
2007,08,29,04,40,14.20
2007,08,29,04,41,14.20
2007,08,29,04,42,14.20
2007,08,29,04,43,14.20
2007,08,29,04,44,14.20
2007,08,29,04,45,14.30
2007,08,29,04,46,14.30
2007,08,29,04,47,14.30
2007,08,29,04,48,14.30
2007,08,29,04,49,14.30
2007,08,29,04,50,14.30
2007,08,29,04,51,14.30
2007,08,29,04,52,14.30
2007,08,29,04,53,14.30
2007,08,29,04,54,14.30
2007,08,29,04,55,14.30
2007,08,29,04,56,14.30
2007,08,29,04,57,14.30
2007,08,29,04,58,14.30
2007,08,29,04,59,14.30
2007,08,29,05,00,14.30
2007,08,29,05,01,14.30
2007,08,29,05,02,14.30
2007,08,29,05,03,14.30
2007,08,29,05,04,14.30
2007,08,29,05,05,14.30
2007,08,29,05,06,14.20
2007,08,29,05,07,14.20
2007,08,29,05,08,14.20
2007,08,29,05,09,14.20
2007,08,29,05,10,14.20
2007,08,29,05,11,14.20
2007,08,29,05,12,14.20
2007,08,29,05,13,14.20
2007,08,29,05,14,14.20
2007,08,29,05,15,14.20
2007,08,29,05,16,14.10
2007,08,29,05,17,14.10
2007,08,29,05,18,14.00
2007,08,29,05,19,14.00
2007,08,29,05,20,13.90
2007,08,29,05,21,13.90
2007,08,29,05,22,13.80
2007,08,29,05,23,13.80
2007,08,29,05,24,13.80
2007,08,29,05,25,13.80
2007,08,29,05,26,13.70
2007,08,29,05,27,13.70
2007,08,29,05,28,13.70
2007,08,29,05,29,13.70
2007,08,29,05,30,13.70
2007,08,29,05,31,13.70
2007,08,29,05,32,13.70
2007,08,29,05,33,13.70
2007,08,29,05,34,13.70
2007,08,29,05,35,13.70
2007,08,29,05,36,13.70
2007,08,29,05,37,13.70
2007,08,29,05,38,13.60
2007,08,29,05,39,13.60
2007,08,29,05,40,13.60
2007,08,29,05,41,13.60
2007,08,29,05,42,13.60
2007,08,29,05,43,13.60
2007,08,29,05,44,13.60
2007,08,29,05,45,13.60
2007,08,29,05,46,13.60
2007,08,29,05,47,13.60
2007,08,29,05,48,13.70
2007,08,29,05,49,13.70
2007,08,29,05,50,13.70
2007,08,29,05,51,13.70
2007,08,29,05,52,13.70
2007,08,29,05,53,13.70
2007,08,29,05,54,13.70
2007,08,29,05,55,13.70
2007,08,29,05,56,13.70
2007,08,29,05,57,13.70
2007,08,29,05,58,13.70
2007,08,29,05,59,13.80
2007,08,29,06,00,13.80
2007,08,29,06,01,13.80
2007,08,29,06,02,13.80
2007,08,29,06,03,13.90
2007,08,29,06,04,13.90
2007,08,29,06,05,13.90
2007,08,29,06,06,13.90
2007,08,29,06,07,14.00
2007,08,29,06,08,14.00
2007,08,29,06,09,14.00
2007,08,29,06,10,14.00
2007,08,29,06,11,14.00
2007,08,29,06,12,14.00
2007,08,29,06,13,14.00
2007,08,29,06,14,14.00
2007,08,29,06,15,14.00
2007,08,29,06,16,14.00
2007,08,29,06,17,14.00
2007,08,29,06,18,13.90
2007,08,29,06,19,13.90
2007,08,29,06,20,13.90
2007,08,29,06,21,13.90
2007,08,29,06,22,13.90
2007,08,29,06,23,13.80
2007,08,29,06,24,13.80
2007,08,29,06,25,13.80
2007,08,29,06,26,13.80
2007,08,29,06,27,13.70
2007,08,29,06,28,13.70
2007,08,29,06,29,13.70
2007,08,29,06,30,13.70
2007,08,29,06,31,13.70
2007,08,29,06,32,13.70
2007,08,29,06,33,13.70
2007,08,29,06,34,13.70
2007,08,29,06,35,13.70
2007,08,29,06,36,13.70
2007,08,29,06,37,13.70
2007,08,29,06,38,13.70
2007,08,29,06,39,13.70
2007,08,29,06,40,13.70
2007,08,29,06,41,13.70
2007,08,29,06,42,13.70
2007,08,29,06,43,13.70
2007,08,29,06,44,13.70
2007,08,29,06,45,13.70
2007,08,29,06,46,13.70
2007,08,29,06,47,13.70
2007,08,29,06,48,13.80
2007,08,29,06,49,13.80
2007,08,29,06,50,13.80
2007,08,29,06,51,13.80
2007,08,29,06,52,13.80
2007,08,29,06,53,13.80
2007,08,29,06,54,13.90
2007,08,29,06,55,13.90
2007,08,29,06,56,13.90
2007,08,29,06,57,13.90
2007,08,29,06,58,13.90
2007,08,29,06,59,13.90
2007,08,29,07,00,13.90
2007,08,29,07,01,13.90
2007,08,29,07,02,13.90
2007,08,29,07,03,13.80
2007,08,29,07,04,13.80
2007,08,29,07,05,13.80
2007,08,29,07,06,13.80
2007,08,29,07,07,13.80
2007,08,29,07,08,13.70
2007,08,29,07,09,13.70
2007,08,29,07,10,13.70
2007,08,29,07,11,13.70
2007,08,29,07,12,13.70
2007,08,29,07,13,13.70
2007,08,29,07,14,13.70
2007,08,29,07,15,13.70
2007,08,29,07,16,13.70
2007,08,29,07,17,13.70
2007,08,29,07,18,13.70
2007,08,29,07,19,13.70
2007,08,29,07,20,13.70
2007,08,29,07,21,13.70
2007,08,29,07,22,13.70
2007,08,29,07,23,13.70
2007,08,29,07,24,13.70
2007,08,29,07,25,13.70
2007,08,29,07,26,13.70
2007,08,29,07,27,13.70
2007,08,29,07,28,13.70
2007,08,29,07,29,13.80
2007,08,29,07,30,13.80
2007,08,29,07,31,13.80
2007,08,29,07,32,13.90
2007,08,29,07,33,13.90
2007,08,29,07,34,13.90
2007,08,29,07,35,13.90
2007,08,29,07,36,14.00
2007,08,29,07,37,14.00
2007,08,29,07,38,14.00
2007,08,29,07,39,14.00
2007,08,29,07,40,14.10
2007,08,29,07,41,14.10
2007,08,29,07,42,14.20
2007,08,29,07,43,14.20
2007,08,29,07,44,14.30
2007,08,29,07,45,14.40
2007,08,29,07,46,14.40
2007,08,29,07,47,14.50
2007,08,29,07,48,14.50
2007,08,29,07,49,14.50
2007,08,29,07,50,14.50
2007,08,29,07,51,14.60
2007,08,29,07,52,14.60
2007,08,29,07,53,14.60
2007,08,29,07,54,14.60
2007,08,29,07,55,14.70
2007,08,29,07,56,14.70
2007,08,29,07,57,14.70
2007,08,29,07,58,14.80
2007,08,29,07,59,14.80
2007,08,29,08,00,14.90
2007,08,29,08,01,14.90
2007,08,29,08,02,15.00
2007,08,29,08,03,15.10
2007,08,29,08,04,15.20
2007,08,29,08,05,15.40
2007,08,29,08,06,15.50
2007,08,29,08,07,15.70
2007,08,29,08,08,15.80
2007,08,29,08,09,16.00
2007,08,29,08,10,16.10
2007,08,29,08,11,16.20
2007,08,29,08,12,16.40
2007,08,29,08,13,16.40
2007,08,29,08,14,16.50
2007,08,29,08,15,16.60
2007,08,29,08,16,16.60
2007,08,29,08,17,16.60
2007,08,29,08,18,16.70
2007,08,29,08,19,16.70
2007,08,29,08,20,16.70
2007,08,29,08,21,16.80
2007,08,29,08,22,16.90
2007,08,29,08,23,16.90
2007,08,29,08,24,17.00
2007,08,29,08,25,17.10
2007,08,29,08,26,17.10
2007,08,29,08,27,17.10
2007,08,29,08,28,17.20
2007,08,29,08,29,17.30
2007,08,29,08,30,17.30
2007,08,29,08,31,17.30
2007,08,29,08,32,17.40
2007,08,29,08,33,17.50
2007,08,29,08,34,17.50
2007,08,29,08,35,17.60
2007,08,29,08,36,17.70
2007,08,29,08,37,17.70
2007,08,29,08,38,17.80
2007,08,29,08,39,17.80
2007,08,29,08,40,17.90
2007,08,29,08,41,17.90
2007,08,29,08,42,17.90
2007,08,29,08,43,17.90
2007,08,29,08,44,17.90
2007,08,29,08,45,17.90
2007,08,29,08,46,17.90
2007,08,29,08,47,17.90
2007,08,29,08,48,17.90
2007,08,29,08,49,17.80
2007,08,29,08,50,17.80
2007,08,29,08,51,17.80
2007,08,29,08,52,17.80
2007,08,29,08,53,17.80
2007,08,29,08,54,17.90
2007,08,29,08,55,17.90
2007,08,29,08,56,17.90
2007,08,29,08,57,17.90
2007,08,29,08,58,17.90
2007,08,29,08,59,18.00
2007,08,29,09,00,18.10
2007,08,29,09,01,18.20
2007,08,29,09,02,18.20
2007,08,29,09,03,18.40
2007,08,29,09,04,18.40
2007,08,29,09,05,18.40
2007,08,29,09,06,18.40
2007,08,29,09,07,18.50
2007,08,29,09,08,18.60
2007,08,29,09,09,18.70
2007,08,29,09,10,18.70
2007,08,29,09,11,18.70
2007,08,29,09,12,18.70
2007,08,29,09,13,18.70
2007,08,29,09,14,18.80
2007,08,29,09,15,18.80
2007,08,29,09,16,18.80
2007,08,29,09,17,18.80
2007,08,29,09,18,18.90
2007,08,29,09,19,18.90
2007,08,29,09,20,18.80
2007,08,29,09,21,18.70
2007,08,29,09,22,18.60
2007,08,29,09,23,18.60
2007,08,29,09,24,18.60
2007,08,29,09,25,18.70
2007,08,29,09,26,18.70
2007,08,29,09,27,18.80
2007,08,29,09,28,18.80
2007,08,29,09,29,18.80
2007,08,29,09,30,18.80
2007,08,29,09,31,18.80
2007,08,29,09,32,18.80
2007,08,29,09,33,18.80
2007,08,29,09,34,18.80
2007,08,29,09,35,18.90
2007,08,29,09,36,18.90
2007,08,29,09,37,18.90
2007,08,29,09,38,19.00
2007,08,29,09,39,19.10
2007,08,29,09,40,19.10
2007,08,29,09,41,18.90
2007,08,29,09,42,18.80
2007,08,29,09,43,18.60
2007,08,29,09,44,18.50
2007,08,29,09,45,18.40
2007,08,29,09,46,18.20
2007,08,29,09,47,18.20
2007,08,29,09,48,18.10
2007,08,29,09,49,18.10
2007,08,29,09,50,18.00
2007,08,29,09,51,18.00
2007,08,29,09,52,18.10
2007,08,29,09,53,18.20
2007,08,29,09,54,18.20
2007,08,29,09,55,18.20
2007,08,29,09,56,18.20
2007,08,29,09,57,18.30
2007,08,29,09,58,18.40
2007,08,29,09,59,18.50
2007,08,29,10,00,18.50
2007,08,29,10,01,18.50
2007,08,29,10,02,18.50
2007,08,29,10,03,18.50
2007,08,29,10,04,18.60
2007,08,29,10,05,18.70
2007,08,29,10,06,18.80
2007,08,29,10,07,18.80
2007,08,29,10,08,18.80
2007,08,29,10,09,18.90
2007,08,29,10,10,19.00
2007,08,29,10,11,19.10
2007,08,29,10,12,19.30
2007,08,29,10,13,19.30
2007,08,29,10,14,19.20
2007,08,29,10,15,19.20
2007,08,29,10,16,19.10
2007,08,29,10,17,19.10
2007,08,29,10,18,19.20
2007,08,29,10,19,19.20
2007,08,29,10,20,19.20
2007,08,29,10,21,19.20
2007,08,29,10,22,19.40
2007,08,29,10,23,19.50
2007,08,29,10,24,19.60
2007,08,29,10,25,19.60
2007,08,29,10,26,19.70
2007,08,29,10,27,19.80
2007,08,29,10,28,19.90
2007,08,29,10,29,19.90
2007,08,29,10,30,19.90
2007,08,29,10,31,20.00
2007,08,29,10,32,20.10
2007,08,29,10,33,20.10
2007,08,29,10,34,20.20
2007,08,29,10,35,20.20
2007,08,29,10,36,20.20
2007,08,29,10,37,20.30
2007,08,29,10,38,20.30
2007,08,29,10,39,20.40
2007,08,29,10,40,20.40
2007,08,29,10,41,20.40
2007,08,29,10,42,20.40
2007,08,29,10,43,20.40
2007,08,29,10,44,20.50
2007,08,29,10,45,20.50
2007,08,29,10,46,20.60
2007,08,29,10,47,20.60
2007,08,29,10,48,20.60
2007,08,29,10,49,20.60
2007,08,29,10,50,20.50
2007,08,29,10,51,20.50
2007,08,29,10,52,20.60
2007,08,29,10,53,20.70
2007,08,29,10,54,20.70
2007,08,29,10,55,20.70
2007,08,29,10,56,20.80
2007,08,29,10,57,20.90
2007,08,29,10,58,21.00
2007,08,29,10,59,21.00
2007,08,29,11,00,21.10
2007,08,29,11,01,21.10
2007,08,29,11,02,21.20
2007,08,29,11,03,21.20
2007,08,29,11,04,21.30
2007,08,29,11,05,21.20
2007,08,29,11,06,21.30
2007,08,29,11,07,21.40
2007,08,29,11,08,21.40
2007,08,29,11,09,21.50
2007,08,29,11,10,21.50
2007,08,29,11,11,21.40
2007,08,29,11,12,21.40
2007,08,29,11,13,21.30
2007,08,29,11,14,21.40
2007,08,29,11,15,21.50
2007,08,29,11,16,21.60
2007,08,29,11,17,21.60
2007,08,29,11,18,21.60
2007,08,29,11,19,21.60
2007,08,29,11,20,21.60
2007,08,29,11,21,21.60
2007,08,29,11,22,21.70
2007,08,29,11,23,21.70
2007,08,29,11,24,21.70
2007,08,29,11,25,21.70
2007,08,29,11,26,21.70
2007,08,29,11,27,21.70
2007,08,29,11,28,21.80
2007,08,29,11,29,21.80
2007,08,29,11,30,21.80
2007,08,29,11,31,21.90
2007,08,29,11,32,21.90
2007,08,29,11,33,22.00
2007,08,29,11,34,22.00
2007,08,29,11,35,22.10
2007,08,29,11,36,22.10
2007,08,29,11,37,22.10
2007,08,29,11,38,22.00
2007,08,29,11,39,21.80
2007,08,29,11,40,21.80
2007,08,29,11,41,21.90
2007,08,29,11,42,22.00
2007,08,29,11,43,22.10
2007,08,29,11,44,22.10
2007,08,29,11,45,22.20
2007,08,29,11,46,22.20
2007,08,29,11,47,22.10
2007,08,29,11,48,22.10
2007,08,29,11,49,22.10
2007,08,29,11,50,22.00
2007,08,29,11,51,22.10
2007,08,29,11,52,22.10
2007,08,29,11,53,22.30
2007,08,29,11,54,22.40
2007,08,29,11,55,22.40
2007,08,29,11,56,22.30
2007,08,29,11,57,22.20
2007,08,29,11,58,22.00
2007,08,29,11,59,22.00
2007,08,29,12,00,22.00
2007,08,29,12,01,22.00
2007,08,29,12,02,21.90
2007,08,29,12,03,21.80
2007,08,29,12,04,21.80
2007,08,29,12,05,21.80
2007,08,29,12,06,21.70
2007,08,29,12,07,21.60
2007,08,29,12,08,21.60
2007,08,29,12,09,21.60
2007,08,29,12,10,21.50
2007,08,29,12,11,21.50
2007,08,29,12,12,21.60
2007,08,29,12,13,21.80
2007,08,29,12,14,21.90
2007,08,29,12,15,22.00
2007,08,29,12,16,22.20
2007,08,29,12,17,22.30
2007,08,29,12,18,22.30
2007,08,29,12,19,22.30
2007,08,29,12,20,22.40
2007,08,29,12,21,22.50
2007,08,29,12,22,22.70
2007,08,29,12,23,22.80
2007,08,29,12,24,22.90
2007,08,29,12,25,22.90
2007,08,29,12,26,22.90
2007,08,29,12,27,22.90
2007,08,29,12,28,22.90
2007,08,29,12,29,22.90
2007,08,29,12,30,22.70
2007,08,29,12,31,22.60
2007,08,29,12,32,22.50
2007,08,29,12,33,22.50
2007,08,29,12,34,22.50
2007,08,29,12,35,22.60
2007,08,29,12,36,22.60
2007,08,29,12,37,22.60
2007,08,29,12,38,22.70
2007,08,29,12,39,22.70
2007,08,29,12,40,22.90
2007,08,29,12,41,23.00
2007,08,29,12,42,23.20
2007,08,29,12,43,23.30
2007,08,29,12,44,23.60
2007,08,29,12,45,23.70
2007,08,29,12,46,23.80
2007,08,29,12,47,23.90
2007,08,29,12,48,23.90
2007,08,29,12,49,24.00
2007,08,29,12,50,24.10
2007,08,29,12,51,24.10
2007,08,29,12,52,24.10
2007,08,29,12,53,24.10
2007,08,29,12,54,24.20
2007,08,29,12,55,24.20
2007,08,29,12,56,24.20
2007,08,29,12,57,24.30
2007,08,29,12,58,24.40
2007,08,29,12,59,24.40
2007,08,29,13,00,24.40
2007,08,29,13,01,24.30
2007,08,29,13,02,24.00
2007,08,29,13,03,23.80
2007,08,29,13,04,23.70
2007,08,29,13,05,23.70
2007,08,29,13,06,23.60
2007,08,29,13,07,23.50
2007,08,29,13,08,23.40
2007,08,29,13,09,23.40
2007,08,29,13,10,23.40
2007,08,29,13,11,23.40
2007,08,29,13,12,23.40
2007,08,29,13,13,23.60
2007,08,29,13,14,23.60
2007,08,29,13,15,23.70
2007,08,29,13,16,23.80
2007,08,29,13,17,23.80
2007,08,29,13,18,23.90
2007,08,29,13,19,24.00
2007,08,29,13,20,24.10
2007,08,29,13,21,24.10
2007,08,29,13,22,24.20
2007,08,29,13,23,24.10
2007,08,29,13,24,24.20
2007,08,29,13,25,24.30
2007,08,29,13,26,24.40
2007,08,29,13,27,24.40
2007,08,29,13,28,24.50
2007,08,29,13,29,24.50
2007,08,29,13,30,24.50
2007,08,29,13,31,24.50
2007,08,29,13,32,24.50
2007,08,29,13,33,24.40
2007,08,29,13,34,24.30
2007,08,29,13,35,24.30
2007,08,29,13,36,24.30
2007,08,29,13,37,24.40
2007,08,29,13,38,24.50
2007,08,29,13,39,24.50
2007,08,29,13,40,24.60
2007,08,29,13,41,24.70
2007,08,29,13,42,24.60
2007,08,29,13,43,24.60
2007,08,29,13,44,24.60
2007,08,29,13,45,24.60
2007,08,29,13,46,24.50
2007,08,29,13,47,24.50
2007,08,29,13,48,24.60
2007,08,29,13,49,24.60
2007,08,29,13,50,24.80
2007,08,29,13,51,24.90
2007,08,29,13,52,25.00
2007,08,29,13,53,25.20
2007,08,29,13,54,25.30
2007,08,29,13,55,25.40
2007,08,29,13,56,25.40
2007,08,29,13,57,25.50
2007,08,29,13,58,25.60
2007,08,29,13,59,25.70
2007,08,29,14,00,25.70
2007,08,29,14,01,25.80
2007,08,29,14,02,25.80
2007,08,29,14,03,25.80
2007,08,29,14,04,25.90
2007,08,29,14,05,25.80
2007,08,29,14,06,25.80
2007,08,29,14,07,25.80
2007,08,29,14,08,25.80
2007,08,29,14,09,25.90
2007,08,29,14,10,25.90
2007,08,29,14,11,25.90
2007,08,29,14,12,26.00
2007,08,29,14,13,26.10
2007,08,29,14,14,26.10
2007,08,29,14,15,26.20
2007,08,29,14,16,26.20
2007,08,29,14,17,26.30
2007,08,29,14,18,26.30
2007,08,29,14,19,26.30
2007,08,29,14,20,26.40
2007,08,29,14,21,26.40
2007,08,29,14,22,26.40
2007,08,29,14,23,26.50
2007,08,29,14,24,26.40
2007,08,29,14,25,26.40
2007,08,29,14,26,26.30
2007,08,29,14,27,26.30
2007,08,29,14,28,26.40
2007,08,29,14,29,26.40
2007,08,29,14,30,26.40
2007,08,29,14,31,26.40
2007,08,29,14,32,26.50
2007,08,29,14,33,26.50
2007,08,29,14,34,26.60
2007,08,29,14,35,26.60
2007,08,29,14,36,26.70
2007,08,29,14,37,26.70
2007,08,29,14,38,26.70
2007,08,29,14,39,26.60
2007,08,29,14,40,26.40
2007,08,29,14,41,26.30
2007,08,29,14,42,26.20
2007,08,29,14,43,26.10
2007,08,29,14,44,26.10
2007,08,29,14,45,26.10
2007,08,29,14,46,26.20
2007,08,29,14,47,26.30
2007,08,29,14,48,26.40
2007,08,29,14,49,26.50
2007,08,29,14,50,26.60
2007,08,29,14,51,26.60
2007,08,29,14,52,26.70
2007,08,29,14,53,26.70
2007,08,29,14,54,26.80
2007,08,29,14,55,26.80
2007,08,29,14,56,26.80
2007,08,29,14,57,26.90
2007,08,29,14,58,26.90
2007,08,29,14,59,26.80
2007,08,29,15,00,26.80
2007,08,29,15,01,26.80
2007,08,29,15,02,26.80
2007,08,29,15,03,26.80
2007,08,29,15,04,26.80
2007,08,29,15,05,26.80
2007,08,29,15,06,26.70
2007,08,29,15,07,26.70
2007,08,29,15,08,26.70
2007,08,29,15,09,26.60
2007,08,29,15,10,26.40
2007,08,29,15,11,26.00
2007,08,29,15,12,25.80
2007,08,29,15,13,25.70
2007,08,29,15,14,25.70
2007,08,29,15,15,25.60
2007,08,29,15,16,25.60
2007,08,29,15,17,25.70
2007,08,29,15,18,25.60
2007,08,29,15,19,25.60
2007,08,29,15,20,25.70
2007,08,29,15,21,25.70
2007,08,29,15,22,25.80
2007,08,29,15,23,25.90
2007,08,29,15,24,26.10
2007,08,29,15,25,26.10
2007,08,29,15,26,26.10
2007,08,29,15,27,26.00
2007,08,29,15,28,25.70
2007,08,29,15,29,25.60
2007,08,29,15,30,25.40
2007,08,29,15,31,25.20
2007,08,29,15,32,25.10
2007,08,29,15,33,25.00
2007,08,29,15,34,24.90
2007,08,29,15,35,24.90
2007,08,29,15,36,24.80
2007,08,29,15,37,24.80
2007,08,29,15,38,24.80
2007,08,29,15,39,24.90
2007,08,29,15,40,25.00
2007,08,29,15,41,25.00
2007,08,29,15,42,25.00
2007,08,29,15,43,25.00
2007,08,29,15,44,25.10
2007,08,29,15,45,25.20
2007,08,29,15,46,25.30
2007,08,29,15,47,25.40
2007,08,29,15,48,25.60
2007,08,29,15,49,25.60
2007,08,29,15,50,25.90
2007,08,29,15,51,26.00
2007,08,29,15,52,26.00
2007,08,29,15,53,26.10
2007,08,29,15,54,26.20
2007,08,29,15,55,26.30
2007,08,29,15,56,26.50
2007,08,29,15,57,26.60
2007,08,29,15,58,26.60
2007,08,29,15,59,26.40
2007,08,29,16,00,26.30
2007,08,29,16,01,26.30
2007,08,29,16,02,26.40
2007,08,29,16,03,26.50
2007,08,29,16,04,26.60
2007,08,29,16,05,26.70
2007,08,29,16,06,26.70
2007,08,29,16,07,26.80
2007,08,29,16,08,26.80
2007,08,29,16,09,26.80
2007,08,29,16,10,26.70
2007,08,29,16,11,26.40
2007,08,29,16,12,26.20
2007,08,29,16,13,25.90
2007,08,29,16,14,25.80
2007,08,29,16,15,25.60
2007,08,29,16,16,25.60
2007,08,29,16,17,25.40
2007,08,29,16,18,25.30
2007,08,29,16,19,24.80
2007,08,29,16,20,24.60
2007,08,29,16,21,24.40
2007,08,29,16,22,24.30
2007,08,29,16,23,24.30
2007,08,29,16,24,24.30
2007,08,29,16,25,24.20
2007,08,29,16,26,24.20
2007,08,29,16,27,24.20
2007,08,29,16,28,24.10
2007,08,29,16,29,24.00
2007,08,29,16,30,23.90
2007,08,29,16,31,24.10
2007,08,29,16,32,23.90
2007,08,29,16,33,23.80
2007,08,29,16,34,23.80
2007,08,29,16,35,23.80
2007,08,29,16,36,23.80
2007,08,29,16,37,23.90
2007,08,29,16,38,23.90
2007,08,29,16,39,23.90
2007,08,29,16,40,23.70
2007,08,29,16,41,23.70
2007,08,29,16,42,23.60
2007,08,29,16,43,23.60
2007,08,29,16,44,23.50
2007,08,29,16,45,23.40
2007,08,29,16,46,23.40
2007,08,29,16,47,23.30
2007,08,29,16,48,23.20
2007,08,29,16,49,23.20
2007,08,29,16,50,23.10
2007,08,29,16,51,22.90
2007,08,29,16,52,22.90
2007,08,29,16,53,22.90
2007,08,29,16,54,22.80
2007,08,29,16,55,22.80
2007,08,29,16,56,22.60
2007,08,29,16,57,22.40
2007,08,29,16,58,22.30
2007,08,29,16,59,22.30
2007,08,29,17,00,22.30
2007,08,29,17,01,22.20
2007,08,29,17,02,22.30
2007,08,29,17,03,22.40
2007,08,29,17,04,22.60
2007,08,29,17,05,22.70
2007,08,29,17,06,22.90
2007,08,29,17,07,22.90
2007,08,29,17,08,22.80
2007,08,29,17,09,22.80
2007,08,29,17,10,22.70
2007,08,29,17,11,22.60
2007,08,29,17,12,22.40
2007,08,29,17,13,22.20
2007,08,29,17,14,22.10
2007,08,29,17,15,22.10
2007,08,29,17,16,22.00
2007,08,29,17,17,22.00
2007,08,29,17,18,22.00
2007,08,29,17,19,22.00